Regional Weather Roundup
Issued by NWS

Home | Current Version | Previous Version | Text Only | Print | Product List | Glossary Off
Versions: 1 2 3 4 5 6 7 8 9 10 11 12 13 14 15 16 17 18 19 20 21 22 23 24 25 26 27 28 29 30 31 32 33 34 35 36 37 38 39 40 41 42 43 44 45 46 47 48 49 50

000
ASUS43 KOAX 311202
RWRNE

WEATHER ROUNDUP FOR NEBRASKA
NATIONAL WEATHER SERVICE OMAHA NE
700 AM CDT THU JUL 31 2014

NOTES: SATELLITE DATA IS BEING USED TO AUGMENT CLOUD COVER ABOVE
       12000 FEET.
       "FAIR" INDICATES FEW OR NO CLOUDS BELOW 12,000 FEET WITH NO
       SIGNIFICANT WEATHER AND/OR OBSTRUCTIONS TO VISIBILITY.

  * THESE STATIONS DO NOT REPORT WEATHER SUCH AS RAIN...SNOW OR FOG.

NEZ001>004-019>022-054>056-311300-
NEBRASKA PANHANDLE

CITY           SKY/WX    TMP DP  RH WIND       PRES   REMARKS
SCOTTSBLUFF    CLEAR     53  52  96 W3        30.21F
6HR MIN TEMP:  53; 6HR MAX TEMP:  63;

ALLIANCE       CLEAR     49  47  93 W6        30.20R
6HR MIN TEMP:  48; 6HR MAX TEMP:  61;

CHADRON        CLEAR     51  48  89 W3        30.19R
6HR MIN TEMP:  51; 6HR MAX TEMP:  66;

KIMBALL        PTCLDY    55  54  97 W6        30.25R FOG
SIDNEY         CLEAR     55  53  93 W6        30.24S
6HR MIN TEMP:  53; 6HR MAX TEMP:  59;

$$

NEZ057>060-069>072-079>082-311300-
SOUTHWEST NEBRASKA

CITY           SKY/WX    TMP DP  RH WIND       PRES   REMARKS
NORTH PLATTE   PTCLDY    56  54  93 CALM      30.15S FOG
6HR MIN TEMP:  53; 6HR MAX TEMP:  61;

IMPERIAL       PTCLDY    59  56  89 W5        30.19S
6HR MIN TEMP:  59; 6HR MAX TEMP:  62;

LEXINGTON      PTCLDY    57  56  94 CALM      30.13S
MCCOOK         PTCLDY    59  57  93 W6        30.17S
6HR MIN TEMP:  58; 6HR MAX TEMP:  63;

$$

NEZ005>010-023>029-035>040-094-311300-
NORTH CENTRAL NEBRASKA

CITY           SKY/WX    TMP DP  RH WIND       PRES   REMARKS
VALENTINE      CLEAR     55  50  83 W7        30.10R
6HR MIN TEMP:  52; 6HR MAX TEMP:  66;

AINSWORTH      CLEAR     57  52  82 W5        30.08S
BROKEN BOW     PTCLDY    56  54  93 CALM      30.11S FOG
6HR MIN TEMP:  54; 6HR MAX TEMP:  58;

ORD            CLEAR     58  55  90 SE3       30.08F
6HR MIN TEMP:  58; 6HR MAX TEMP:  64;

$$

NEZ041-046>049-061>064-073>077-083>087-311300-
SOUTH CENTRAL NEBRASKA

CITY           SKY/WX    TMP DP  RH WIND       PRES   REMARKS
GRAND ISLAND   MOCLDY    61  54  77 S6        30.12S
6HR MIN TEMP:  59; 6HR MAX TEMP:  63;

AURORA         PTCLDY    58  56  93 SW3       30.12S
HASTINGS       MOCLDY    63  51  65 S6        30.13S
6HR MIN TEMP:  59; 6HR MAX TEMP:  65;

HEBRON         MOCLDY    55  51  87 CALM      30.13S
HOLDREGE       MOCLDY    60  54  81 CALM      30.13S
KEARNEY *      MOCLDY    59  54  82 S7        30.13S
YORK           PTCLDY    55  55 100 SW6       30.13R
$$

NEZ011>018-030>034-042>045-311300-
NORTHEAST NEBRASKA

CITY           SKY/WX    TMP DP  RH WIND       PRES   REMARKS
NORFOLK        PTCLDY    57  54  89 E5        30.09S
6HR MIN TEMP:  56; 6HR MAX TEMP:  60;

ALBION         PTCLDY    61  54  76 CALM      30.10F
BLAIR          CLEAR     60  54  80 CALM      30.10S
COLUMBUS *     PTCLDY    55  52  88 CALM      30.11S
FREMONT        CLEAR     59  56  89 CALM      30.11S
TEKAMAH        CLEAR     54  51  90 CALM      30.10S
6HR MIN TEMP:  52; 6HR MAX TEMP:  59;

WAYNE          PTCLDY    55  54  95 CALM      30.10S
$$

NEZ050>053-065>068-078-088>093-311300-
SOUTHEAST NEBRASKA

CITY           SKY/WX    TMP DP  RH WIND       PRES   REMARKS
LINCOLN        CLEAR     55  52  89 CALM      30.12S
6HR MIN TEMP:  53; 6HR MAX TEMP:  62;

OMAHA EPPLEY   PTCLDY    61  56  83 SE3       30.11S
6HR MIN TEMP:  58; 6HR MAX TEMP:  63;

BEATRICE       CLEAR     53  50  90 CALM      30.12S
FALLS CITY     CLEAR     57  54  89 CALM      30.11S
6HR MIN TEMP:  55; 6HR MAX TEMP:  61;

NEBRASKA CITY  CLEAR     59  54  82 W3        30.12R
PLATTSMOUTH    CLEAR     59  53  81 S5        30.11S
$$

NEZ044-045-051>053-067-311300-
OMAHA AREA

CITY           SKY/WX    TMP DP  RH WIND       PRES   REMARKS
OMAHA EPPLEY   PTCLDY    61  56  83 SE3       30.11S
6HR MIN TEMP:  58; 6HR MAX TEMP:  63;

BLAIR          CLEAR     60  54  80 CALM      30.10S
FREMONT        CLEAR     59  56  89 CALM      30.11S
MILLARD        CLEAR     58  57  95 CALM      30.11R
OFFUTT AFB     CLEAR     52  52 100 CALM      30.10F
PLATTSMOUTH    CLEAR     59  53  81 S5        30.11S
WAHOO          FAIR      55  52  90 CALM      30.11S
$$


USA.gov is the U.S. government's official web portal to all federal, state and local government web resources and services.